Zurück zum Katalog

STARLINK-5812

AktivKommunikationVLEO
NORAD 55774·PAYLOAD·🇺🇸 United States

Gestartet Mar 3, 2023 von Vandenberg Space Force Base

Loading…

Nächste Überflüge (nächste 24 Stunden)

TLE

AktuellSource: CelesTrak SupGP

Epoche: Sep 14, 2026, 22:31 UTC

1 55774C 23028AK  26257.93868056 -.00001886  00000+0 -15800-3 0  2578
2 55774  69.9999 107.2499 0002683 277.2950  18.8411 14.98335088    17

Verfolge STARLINK-5812 in Echtzeit mit AllMySat

Download on the App Store